| time (UTC) | temp F | wind direction | speed knots | gust knots | rain 1hr in | rain 24hr in | rain mn in | humidity % | barometer mb |
| 20260510011507 | 78 | 196 | 4.3 | 5.2 | 0.00 | 0.00 | 0.00 | 54 | 1008.3 |
| 20260510011002 | 78 | 214 | 4.3 | 5.2 | 0.00 | 0.00 | 0.00 | 54 | 1008.4 |
| 20260510010500 | 78 | 231 | 1.7 | 1.7 | 0.00 | 0.00 | 0.00 | 54 | 1008.2 |
| 20260510005957 | 78 | 324 | 0.0 | 0.9 | 0.00 | 0.00 | 0.00 | 54 | 1008.3 |
| 20260510005452 | 78 | 160 | 1.7 | 4.3 | 0.00 | 0.00 | 0.00 | 54 | 1007.8 |
| 20260510004950 | 78 | 152 | 2.6 | 6.1 | 0.00 | 0.00 | 0.00 | 54 | 1007.7 |
| 20260510004447 | 78 | 160 | 2.6 | 5.2 | 0.00 | 0.00 | 0.00 | 53 | 1007.9 |
| 20260510003945 | 78 | 171 | 4.3 | 5.2 | 0.00 | 0.00 | 0.00 | 52 | 1007.8 |
| 20260510003442 | 79 | 224 | 1.7 | 2.6 | 0.00 | 0.00 | 0.00 | 52 | 1007.8 |
| 20260510002942 | 79 | 89 | 1.7 | 2.6 | 0.00 | 0.00 | 0.00 | 52 | 1007.6 |
| 20260510002438 | 79 | 115 | 3.5 | 6.1 | 0.00 | 0.00 | 0.00 | 51 | 1007.9 |
| 20260510001935 | 80 | 184 | 4.3 | 5.2 | 0.00 | 0.00 | 0.00 | 49 | 1008.1 |
| 20260510001432 | 80 | 183 | 2.6 | 2.6 | 0.00 | 0.00 | 0.00 | 49 | 1007.8 |
| 20260510000930 | 80 | 112 | 0.9 | 5.2 | 0.00 | 0.00 | 0.00 | 48 | 1007.7 |
| 20260510000426 | 80 | 118 | 2.6 | 7.0 | 0.00 | 0.00 | 0.00 | 47 | 1007.8 |
| 20260509235923 | 81 | 12 | 2.6 | 7.8 | 0.00 | 0.00 | 0.00 | 47 | 1007.6 |
| 20260509235420 | 81 | 87 | 2.6 | 8.7 | 0.00 | 0.00 | 0.00 | 46 | 1007.6 |
| 20260509234916 | 81 | 150 | 2.6 | 5.2 | 0.00 | 0.00 | 0.00 | 46 | 1007.7 |
| 20260509234413 | 81 | 105 | 3.5 | 4.3 | 0.00 | 0.00 | 0.00 | 45 | 1007.7 |
| 20260509233911 | 81 | 123 | 1.7 | 6.1 | 0.00 | 0.00 | 0.00 | 44 | 1007.8 |
| 20260509233408 | 82 | 166 | 7.0 | 9.6 | 0.00 | 0.00 | 0.00 | 44 | 1007.9 |
| 20260509232904 | 82 | 249 | 5.2 | 6.1 | 0.00 | 0.00 | 0.00 | 45 | 1007.7 |
| 20260509232402 | 83 | 126 | 3.5 | 9.6 | 0.00 | 0.00 | 0.00 | 44 | 1007.8 |
| 20260509231858 | 83 | 137 | 7.0 | 7.8 | 0.00 | 0.00 | 0.00 | 43 | 1007.7 |
| 20260509231355 | 83 | 145 | 4.3 | 8.7 | 0.00 | 0.00 | 0.00 | 43 | 1008.0 |
| 20260509230853 | 84 | 142 | 9.6 | 13.0 | 0.00 | 0.00 | 0.00 | 42 | 1008.1 |
| 20260509230349 | 84 | 111 | 4.3 | 8.7 | 0.00 | 0.00 | 0.00 | 42 | 1008.0 |
| 20260509225845 | 84 | 129 | 7.0 | 8.7 | 0.00 | 0.00 | 0.00 | 42 | 1008.2 |
| 20260509225342 | 84 | 163 | 6.1 | 9.6 | 0.00 | 0.00 | 0.00 | 42 | 1008.2 |
| 20260509224837 | 84 | 204 | 4.3 | 7.8 | 0.00 | 0.00 | 0.00 | 42 | 1008.1 |
| 20260509224333 | 85 | 124 | 7.0 | 9.6 | 0.00 | 0.00 | 0.00 | 41 | 1008.5 |
| 20260509223831 | 84 | 124 | 5.2 | 7.8 | 0.00 | 0.00 | 0.00 | 41 | 1008.2 |
| 20260509223327 | 84 | 71 | 1.7 | 5.2 | 0.00 | 0.00 | 0.00 | 41 | 1008.3 |
| 20260509222825 | 85 | 156 | 4.3 | 7.0 | 0.00 | 0.00 | 0.00 | 41 | 1008.6 |
| 20260509222320 | 85 | 224 | 6.1 | 7.0 | 0.00 | 0.00 | 0.00 | 41 | 1008.5 |
| 20260509221816 | 85 | 71 | 0.0 | 5.2 | 0.00 | 0.00 | 0.00 | 41 | 1008.9 |
| 20260509221314 | 84 | 162 | 4.3 | 7.0 | 0.00 | 0.00 | 0.00 | 42 | 1008.5 |
| 20260509220814 | 84 | 165 | 4.3 | 6.1 | 0.00 | 0.00 | 0.00 | 41 | 1008.6 |
| 20260509220310 | 84 | 35 | 0.9 | 5.2 | 0.00 | 0.00 | 0.00 | 41 | 1008.6 |
| 20260509215806 | 84 | 74 | 0.9 | 7.8 | 0.00 | 0.00 | 0.00 | 44 | 1008.5 |
| 20260509215305 | 86 | 183 | 5.2 | 7.0 | 0.00 | 0.00 | 0.00 | 40 | 1008.8 |
| 20260509214759 | 84 | 209 | 2.6 | 8.7 | 0.00 | 0.00 | 0.00 | 41 | 1008.5 |
| 20260509214257 | 85 | 140 | 4.3 | 7.8 | 0.00 | 0.00 | 0.00 | 42 | 1008.5 |
| 20260509213754 | 85 | 148 | 2.6 | 5.2 | 0.00 | 0.00 | 0.00 | 41 | 1009.0 |
| 20260509213249 | 84 | 310 | 0.0 | 2.6 | 0.00 | 0.00 | 0.00 | 42 | 1008.8 |
| 20260509212747 | 85 | 146 | 2.6 | 5.2 | 0.00 | 0.00 | 0.00 | 41 | 1009.0 |
| 20260509212244 | 85 | 255 | 1.7 | 1.7 | 0.00 | 0.00 | 0.00 | 41 | 1008.9 |
| 20260509211739 | 85 | 202 | 4.3 | 7.0 | 0.00 | 0.00 | 0.00 | 41 | 1009.1 |
| 20260509211236 | 85 | 125 | 4.3 | 9.6 | 0.00 | 0.00 | 0.00 | 42 | 1009.2 |
| 20260509210732 | 84 | 75 | 0.9 | 4.3 | 0.00 | 0.00 | 0.00 | 39 | 1009.3 |
| 20260509210231 | 84 | 179 | 0.9 | 5.2 | 0.00 | 0.00 | 0.00 | 41 | 1009.3 |
| 20260509205730 | 84 | 187 | 3.5 | 7.0 | 0.00 | 0.00 | 0.00 | 41 | 1009.2 |
| 20260509205230 | 84 | 235 | 0.9 | 5.2 | 0.00 | 0.00 | 0.00 | 40 | 1009.2 |
| 20260509204726 | 84 | 183 | 5.2 | 7.0 | 0.00 | 0.00 | 0.00 | 40 | 1009.2 |
| 20260509204223 | 84 | 179 | 4.3 | 7.8 | 0.00 | 0.00 | 0.00 | 40 | 1009.4 |
| 20260509203718 | 83 | 81 | 1.7 | 7.0 | 0.00 | 0.00 | 0.00 | 41 | 1009.1 |
| 20260509203217 | 84 | 207 | 4.3 | 5.2 | 0.00 | 0.00 | 0.00 | 40 | 1009.3 |
| 20260509202712 | 85 | 339 | 0.0 | 0.9 | 0.00 | 0.00 | 0.00 | 39 | 1009.3 |
| 20260509202207 | 84 | 201 | 3.5 | 5.2 | 0.00 | 0.00 | 0.00 | 38 | 1009.3 |
| 20260509201703 | 84 | 315 | 0.0 | 7.0 | 0.00 | 0.00 | 0.00 | 39 | 1009.6 |
| 20260509201200 | 84 | 197 | 4.3 | 6.1 | 0.00 | 0.00 | 0.00 | 40 | 1009.6 |
| 20260509200656 | 84 | 161 | 5.2 | 6.1 | 0.00 | 0.00 | 0.00 | 41 | 1009.7 |
| 20260509200151 | 86 | 182 | 2.6 | 5.2 | 0.00 | 0.00 | 0.00 | 38 | 1009.8 |
| 20260509195647 | 85 | 313 | 0.9 | 1.7 | 0.00 | 0.00 | 0.00 | 36 | 1009.8 |
| 20260509195143 | 84 | 4 | 0.9 | 4.3 | 0.00 | 0.00 | 0.00 | 39 | 1009.9 |
| 20260509194643 | 84 | 233 | 1.7 | 2.6 | 0.00 | 0.00 | 0.00 | 39 | 1009.8 |
| 20260509194140 | 82 | 257 | 0.9 | 5.2 | 0.00 | 0.00 | 0.00 | 43 | 1010.0 |
| 20260509193636 | 84 | 169 | 3.5 | 4.3 | 0.00 | 0.00 | 0.00 | 40 | 1010.2 |
| 20260509193131 | 85 | 18 | 1.7 | 4.3 | 0.00 | 0.00 | 0.00 | 42 | 1010.1 |
| 20260509192628 | 85 | 284 | 0.9 | 1.7 | 0.00 | 0.00 | 0.00 | 36 | 1010.0 |
| 20260509192124 | 83 | 0 | 0.0 | 4.3 | 0.00 | 0.00 | 0.00 | 38 | 1010.0 |
| 20260509191623 | 82 | 340 | 2.6 | 2.6 | 0.00 | 0.00 | 0.00 | 43 | 1010.2 |
| 20260509191120 | 83 | 15 | 1.7 | 4.3 | 0.00 | 0.00 | 0.00 | 41 | 1010.4 |
| 20260509190617 | 82 | 209 | 0.9 | 1.7 | 0.00 | 0.00 | 0.00 | 39 | 1010.3 |
| 20260509190114 | 82 | 221 | 2.6 | 5.2 | 0.00 | 0.00 | 0.00 | 42 | 1010.4 |
| 20260509185612 | 81 | 353 | 1.7 | 2.6 | 0.00 | 0.00 | 0.00 | 42 | 1010.4 |
| 20260509185108 | 82 | 147 | 4.3 | 8.7 | 0.00 | 0.00 | 0.00 | 45 | 1010.5 |
| 20260509184606 | 82 | 185 | 3.5 | 7.0 | 0.00 | 0.00 | 0.00 | 43 | 1010.6 |
| 20260509184102 | 82 | 194 | 3.5 | 4.3 | 0.00 | 0.00 | 0.00 | 43 | 1010.5 |
| 20260509183558 | 82 | 126 | 0.9 | 4.3 | 0.00 | 0.00 | 0.00 | 44 | 1010.6 |
| 20260509183054 | 81 | 124 | 0.9 | 1.7 | 0.00 | 0.00 | 0.00 | 46 | 1010.7 |
| 20260509182550 | 81 | 250 | 0.9 | 2.6 | 0.00 | 0.00 | 0.00 | 44 | 1010.7 |
| 20260509182047 | 80 | 223 | 3.5 | 8.7 | 0.00 | 0.00 | 0.00 | 47 | 1010.8 |
| 20260509181546 | 81 | 153 | 3.5 | 6.1 | 0.00 | 0.00 | 0.00 | 46 | 1010.7 |
| 20260509181042 | 80 | 214 | 4.3 | 4.3 | 0.00 | 0.00 | 0.00 | 44 | 1010.7 |
| 20260509180538 | 81 | 210 | 2.6 | 7.0 | 0.00 | 0.00 | 0.00 | 42 | 1010.7 |
| 20260509180036 | 82 | 171 | 2.6 | 2.6 | 0.00 | 0.00 | 0.00 | 44 | 1011.0 |
| 20260509175531 | 80 | 328 | 0.9 | 1.7 | 0.00 | 0.00 | 0.00 | 39 | 1011.1 |
| 20260509175028 | 80 | 113 | 1.7 | 4.3 | 0.00 | 0.00 | 0.00 | 45 | 1011.1 |
| 20260509174525 | 81 | 142 | 3.5 | 5.2 | 0.00 | 0.00 | 0.00 | 43 | 1011.5 |
| 20260509174020 | 80 | 351 | 0.0 | 1.7 | 0.00 | 0.00 | 0.00 | 48 | 1011.5 |
| 20260509173514 | 80 | 220 | 3.5 | 5.2 | 0.00 | 0.00 | 0.00 | 50 | 1011.2 |
| 20260509173011 | 80 | 69 | 0.9 | 7.0 | 0.00 | 0.00 | 0.00 | 48 | 1011.6 |
| 20260509172508 | 79 | 215 | 2.6 | 6.1 | 0.00 | 0.00 | 0.00 | 49 | 1011.7 |
| 20260509172004 | 79 | 193 | 1.7 | 7.0 | 0.00 | 0.00 | 0.00 | 54 | 1011.9 |
| 20260509171459 | 79 | 173 | 2.6 | 6.1 | 0.00 | 0.00 | 0.00 | 53 | 1011.8 |
| 20260509170956 | 79 | 225 | 3.5 | 4.3 | 0.00 | 0.00 | 0.00 | 57 | 1012.1 |
| 20260509170452 | 78 | 44 | 0.9 | 4.3 | 0.00 | 0.00 | 0.00 | 55 | 1012.0 |
| 20260509165948 | 78 | 123 | 0.9 | 2.6 | 0.00 | 0.00 | 0.00 | 56 | 1012.0 |
| 20260509165447 | 78 | 260 | 0.9 | 4.3 | 0.00 | 0.00 | 0.00 | 58 | 1011.9 |
| 20260509164943 | 76 | 218 | 2.6 | 5.2 | 0.00 | 0.00 | 0.00 | 60 | 1011.9 |
| 20260509164439 | 76 | 199 | 6.1 | 7.8 | 0.00 | 0.00 | 0.00 | 60 | 1012.1 |
| 20260509163935 | 76 | 204 | 6.1 | 7.8 | 0.00 | 0.00 | 0.00 | 64 | 1012.0 |
| 20260509163433 | 77 | 119 | 1.7 | 4.3 | 0.00 | 0.00 | 0.00 | 66 | 1011.8 |
| 20260509162931 | 76 | 174 | 4.3 | 6.1 | 0.00 | 0.00 | 0.00 | 60 | 1012.2 |
| 20260509162431 | 75 | 190 | 4.3 | 5.2 | 0.00 | 0.00 | 0.00 | 64 | 1011.9 |
| 20260509161926 | 75 | 148 | 3.5 | 4.3 | 0.00 | 0.00 | 0.00 | 61 | 1012.1 |
| 20260509161423 | 75 | 242 | 2.6 | 7.0 | 0.00 | 0.00 | 0.00 | 68 | 1012.2 |
| 20260509160918 | 76 | 177 | 6.1 | 7.8 | 0.00 | 0.00 | 0.00 | 61 | 1012.2 |
| 20260509160414 | 75 | 126 | 2.6 | 7.8 | 0.00 | 0.00 | 0.00 | 67 | 1012.0 |
| 20260509155909 | 75 | 205 | 6.1 | 6.1 | 0.00 | 0.00 | 0.00 | 65 | 1012.1 |
| 20260509155406 | 74 | 196 | 4.3 | 7.8 | 0.00 | 0.00 | 0.00 | 70 | 1012.0 |
| 20260509154903 | 74 | 178 | 4.3 | 6.1 | 0.00 | 0.00 | 0.00 | 70 | 1012.0 |
| 20260509154359 | 73 | 190 | 4.3 | 6.1 | 0.00 | 0.00 | 0.00 | 74 | 1011.9 |
| 20260509153856 | 74 | 161 | 4.3 | 6.1 | 0.00 | 0.00 | 0.00 | 73 | 1011.9 |
| 20260509153353 | 72 | 152 | 3.5 | 6.1 | 0.00 | 0.00 | 0.00 | 73 | 1012.0 |
| 20260509152850 | 72 | 203 | 2.6 | 5.2 | 0.00 | 0.00 | 0.00 | 74 | 1011.9 |
| 20260509152346 | 73 | 156 | 5.2 | 7.8 | 0.00 | 0.00 | 0.00 | 76 | 1011.8 |
| 20260509151843 | 73 | 183 | 4.3 | 7.0 | 0.00 | 0.00 | 0.00 | 75 | 1011.9 |
| 20260509151339 | 73 | 142 | 2.6 | 7.0 | 0.00 | 0.00 | 0.00 | 72 | 1012.1 |
| 20260509150838 | 73 | 139 | 1.7 | 5.2 | 0.00 | 0.00 | 0.00 | 72 | 1012.0 |
| 20260509150335 | 73 | 169 | 3.5 | 5.2 | 0.00 | 0.00 | 0.00 | 73 | 1012.1 |
| 20260509145832 | 74 | 157 | 4.3 | 5.2 | 0.00 | 0.00 | 0.00 | 68 | 1011.9 |
| 20260509145327 | 74 | 139 | 3.5 | 5.2 | 0.00 | 0.00 | 0.00 | 67 | 1011.7 |
| 20260509144823 | 74 | 356 | 2.6 | 5.2 | 0.00 | 0.00 | 0.00 | 70 | 1011.5 |
| 20260509144321 | 73 | 333 | 0.9 | 4.3 | 0.00 | 0.00 | 0.00 | 74 | 1011.2 |
| 20260509143817 | 72 | 83 | 2.6 | 4.3 | 0.00 | 0.00 | 0.00 | 75 | 1011.6 |
| 20260509143315 | 71 | 56 | 0.9 | 5.2 | 0.00 | 0.00 | 0.00 | 81 | 1011.4 |
| 20260509142811 | 70 | 16 | 0.9 | 1.7 | 0.00 | 0.00 | 0.00 | 83 | 1011.2 |
| 20260509142307 | 68 | 18 | 0.9 | 0.9 | 0.00 | 0.00 | 0.00 | 85 | 1011.4 |
| 20260509141802 | 69 | 11 | 0.9 | 0.9 | 0.00 | 0.00 | 0.00 | 85 | 1011.4 |
| 20260509141300 | 69 | 1 | 1.7 | 1.7 | 0.00 | 0.00 | 0.00 | 84 | 1011.1 |
| 20260509140757 | 69 | 36 | 1.7 | 2.6 | 0.00 | 0.00 | 0.00 | 83 | 1011.5 |
| 20260509140254 | 69 | 15 | 1.7 | 2.6 | 0.00 | 0.00 | 0.00 | 84 | 1011.4 |
| 20260509135752 | 68 | 334 | 1.7 | 1.7 | 0.00 | 0.00 | 0.00 | 85 | 1011.4 |
| 20260509135249 | 68 | 63 | 1.7 | 2.6 | 0.00 | 0.00 | 0.00 | 86 | 1011.6 |
| 20260509134746 | 67 | 356 | 1.7 | 1.7 | 0.00 | 0.00 | 0.00 | 88 | 1011.6 |
| 20260509134243 | 67 | 14 | 0.9 | 0.9 | 0.00 | 0.00 | 0.00 | 86 | 1011.2 |
| 20260509133740 | 67 | 38 | 0.9 | 1.7 | 0.00 | 0.00 | 0.00 | 86 | 1011.4 |
| 20260509133237 | 66 | 10 | 0.0 | 0.9 | 0.00 | 0.00 | 0.00 | 87 | 1011.5 |
| 20260509132736 | 66 | 4 | 0.0 | 0.0 | 0.00 | 0.00 | 0.00 | 87 | 1011.2 |
| 20260509132234 | 66 | 22 | 0.9 | 0.9 | 0.00 | 0.00 | 0.00 | 86 | 1011.2 |
| 20260509131730 | 65 | 349 | 0.0 | 0.0 | 0.00 | 0.00 | 0.00 | 88 | 1011.1 |
| 20260509131227 | 65 | 339 | 0.9 | 0.9 | 0.00 | 0.00 | 0.00 | 89 | 1011.0 |
| 20260509130723 | 64 | 336 | 0.0 | 0.0 | 0.00 | 0.00 | 0.00 | 89 | 1011.1 |
| 20260509130219 | 63 | 13 | 0.0 | 0.0 | 0.00 | 0.00 | 0.00 | 91 | 1011.0 |
| 20260509125716 | 61 | 13 | 0.0 | 0.9 | 0.00 | 0.00 | 0.00 | 95 | 1010.8 |
| 20260509125213 | 61 | 342 | 0.9 | 0.9 | 0.00 | 0.00 | 0.00 | 96 | 1010.9 |
| 20260509124709 | 62 | 345 | 0.0 | 0.0 | 0.00 | 0.00 | 0.00 | 96 | 1010.5 |
| 20260509124206 | 60 | 337 | 0.0 | 0.0 | 0.00 | 0.00 | 0.00 | 98 | 1010.7 |
| 20260509123704 | 60 | 337 | 0.0 | 0.0 | 0.00 | 0.00 | 0.00 | 98 | 1010.8 |
| 20260509123201 | 59 | 337 | 0.0 | 0.0 | 0.00 | 0.00 | 0.00 | 98 | 1010.8 |
| 20260509122656 | 59 | 337 | 0.0 | 0.0 | 0.00 | 0.00 | 0.00 | 98 | 1010.6 |
| 20260509122153 | 58 | 337 | 0.0 | 0.0 | 0.00 | 0.00 | 0.00 | 98 | 1010.4 |
| 20260509121650 | 57 | 324 | 0.0 | 0.0 | 0.00 | 0.00 | 0.00 | 98 | 1010.6 |
| 20260509121148 | 57 | 324 | 0.0 | 0.0 | 0.00 | 0.00 | 0.00 | 98 | 1010.5 |
| 20260509120646 | 56 | 323 | 0.0 | 0.0 | 0.00 | 0.00 | 0.00 | 98 | 1010.4 |
| 20260509120144 | 56 | 230 | 0.9 | 0.9 | 0.00 | 0.00 | 0.00 | 98 | 1010.8 |
| 20260509115641 | 56 | 299 | 0.0 | 0.0 | 0.00 | 0.00 | 0.00 | 98 | 1010.3 |
| 20260509115138 | 56 | 314 | 0.0 | 0.0 | 0.00 | 0.00 | 0.00 | 98 | 1010.5 |
| 20260509114636 | 56 | 306 | 0.0 | 0.0 | 0.00 | 0.00 | 0.00 | 98 | 1010.5 |
| 20260509114135 | 56 | 336 | 0.0 | 0.0 | 0.00 | 0.00 | 0.00 | 98 | 1010.3 |
| 20260509113633 | 56 | 351 | 0.0 | 0.0 | 0.00 | 0.00 | 0.00 | 98 | 1010.2 |
| 20260509113130 | 57 | 351 | 0.0 | 0.0 | 0.00 | 0.00 | 0.00 | 98 | 1010.1 |
| 20260509112626 | 56 | 351 | 0.0 | 0.0 | 0.00 | 0.00 | 0.00 | 98 | 1009.9 |
| 20260509112124 | 56 | 354 | 0.0 | 0.0 | 0.00 | 0.00 | 0.00 | 98 | 1010.0 |
| 20260509111620 | 56 | 339 | 0.0 | 0.9 | 0.00 | 0.00 | 0.00 | 98 | 1009.9 |
| 20260509111117 | 56 | 347 | 0.0 | 0.0 | 0.00 | 0.00 | 0.00 | 98 | 1009.9 |
| 20260509110614 | 56 | 355 | 0.0 | 0.9 | 0.00 | 0.00 | 0.00 | 98 | 1009.9 |
| 20260509110112 | 56 | 1 | 0.9 | 0.9 | 0.00 | 0.00 | 0.00 | 98 | 1009.8 |
| 20260509105610 | 56 | 359 | 0.0 | 0.0 | 0.00 | 0.00 | 0.00 | 98 | 1010.0 |
| 20260509105107 | 57 | 356 | 0.0 | 0.9 | 0.00 | 0.00 | 0.00 | 98 | 1009.8 |
| 20260509104604 | 56 | 2 | 0.0 | 1.7 | 0.00 | 0.00 | 0.00 | 98 | 1009.9 |
| 20260509104100 | 56 | 355 | 0.0 | 0.9 | 0.00 | 0.00 | 0.00 | 98 | 1009.6 |
| 20260509103558 | 57 | 353 | 0.0 | 0.0 | 0.00 | 0.00 | 0.00 | 98 | 1009.9 |
| 20260509103056 | 56 | 339 | 0.0 | 0.0 | 0.00 | 0.00 | 0.00 | 98 | 1010.0 |
| 20260509102553 | 57 | 339 | 0.0 | 0.0 | 0.00 | 0.00 | 0.00 | 98 | 1010.1 |
| 20260509102050 | 57 | 339 | 0.0 | 0.0 | 0.00 | 0.00 | 0.00 | 98 | 1010.1 |
| 20260509101546 | 57 | 339 | 0.0 | 0.0 | 0.00 | 0.00 | 0.00 | 98 | 1010.3 |
| 20260509101043 | 57 | 348 | 0.0 | 0.0 | 0.00 | 0.00 | 0.00 | 98 | 1010.4 |
| 20260509100540 | 57 | 357 | 0.0 | 1.7 | 0.00 | 0.00 | 0.00 | 98 | 1010.4 |
| 20260509100038 | 58 | 345 | 0.9 | 0.9 | 0.00 | 0.00 | 0.00 | 98 | 1010.5 |
| 20260509095534 | 58 | 340 | 0.0 | 1.7 | 0.00 | 0.00 | 0.00 | 98 | 1010.7 |
| 20260509095032 | 58 | 325 | 0.9 | 1.7 | 0.00 | 0.00 | 0.00 | 98 | 1010.5 |
| 20260509094528 | 58 | 332 | 0.0 | 0.0 | 0.00 | 0.00 | 0.00 | 98 | 1010.6 |
| 20260509094025 | 58 | 336 | 0.0 | 0.9 | 0.00 | 0.00 | 0.00 | 98 | 1010.7 |
| 20260509093524 | 58 | 8 | 1.7 | 1.7 | 0.00 | 0.00 | 0.00 | 98 | 1010.4 |
| 20260509093021 | 58 | 357 | 0.0 | 0.0 | 0.00 | 0.00 | 0.00 | 98 | 1010.4 |
| 20260509092519 | 58 | 331 | 0.0 | 0.0 | 0.00 | 0.00 | 0.00 | 98 | 1010.4 |
| 20260509092017 | 58 | 332 | 0.0 | 0.0 | 0.00 | 0.00 | 0.00 | 98 | 1010.2 |
| 20260509091514 | 58 | 332 | 0.0 | 0.0 | 0.00 | 0.00 | 0.00 | 98 | 1010.4 |
| 20260509091010 | 58 | 336 | 0.0 | 0.0 | 0.00 | 0.00 | 0.00 | 98 | 1010.4 |
| 20260509090508 | 58 | 337 | 0.0 | 0.0 | 0.00 | 0.00 | 0.00 | 98 | 1010.3 |
| 20260509090006 | 58 | 336 | 0.0 | 0.0 | 0.00 | 0.00 | 0.00 | 98 | 1010.4 |
| 20260509085502 | 58 | 336 | 0.0 | 0.0 | 0.00 | 0.00 | 0.00 | 98 | 1010.4 |
| 20260509084958 | 59 | 336 | 0.0 | 0.0 | 0.00 | 0.00 | 0.00 | 98 | 1010.5 |
| 20260509084455 | 59 | 338 | 0.0 | 0.0 | 0.00 | 0.00 | 0.00 | 98 | 1010.4 |
| 20260509083953 | 59 | 338 | 0.0 | 0.0 | 0.00 | 0.00 | 0.00 | 98 | 1010.4 |
| 20260509083450 | 59 | 338 | 0.0 | 0.0 | 0.00 | 0.00 | 0.00 | 98 | 1010.6 |
| 20260509082946 | 59 | 340 | 0.0 | 0.0 | 0.00 | 0.00 | 0.00 | 98 | 1010.7 |
| 20260509082444 | 59 | 334 | 0.0 | 0.0 | 0.00 | 0.00 | 0.00 | 98 | 1010.6 |
| 20260509081941 | 59 | 342 | 0.0 | 0.0 | 0.00 | 0.00 | 0.00 | 98 | 1010.6 |
| 20260509081433 | 59 | 342 | 0.0 | 0.0 | 0.00 | 0.00 | 0.00 | 98 | 1010.7 |
| 20260509080930 | 59 | 342 | 0.0 | 0.0 | 0.00 | 0.00 | 0.00 | 98 | 1010.7 |
| 20260509080428 | 60 | 333 | 0.9 | 0.9 | 0.00 | 0.00 | 0.00 | 98 | 1010.6 |
| 20260509075926 | 60 | 333 | 0.0 | 0.0 | 0.00 | 0.00 | 0.00 | 98 | 1010.7 |
| 20260509075422 | 60 | 355 | 0.0 | 0.0 | 0.00 | 0.00 | 0.00 | 98 | 1011.0 |
| 20260509074920 | 60 | 335 | 0.0 | 0.0 | 0.00 | 0.00 | 0.00 | 98 | 1010.9 |
| 20260509074418 | 60 | 335 | 0.0 | 0.0 | 0.00 | 0.00 | 0.00 | 98 | 1011.0 |
| 20260509073914 | 60 | 334 | 0.0 | 0.0 | 0.00 | 0.00 | 0.00 | 98 | 1010.8 |
| 20260509073410 | 61 | 321 | 0.0 | 0.0 | 0.00 | 0.00 | 0.00 | 98 | 1010.7 |
| 20260509072907 | 61 | 321 | 0.9 | 0.9 | 0.00 | 0.00 | 0.00 | 98 | 1010.8 |
| 20260509072403 | 61 | 321 | 0.0 | 0.0 | 0.00 | 0.00 | 0.00 | 98 | 1010.8 |
| 20260509071900 | 61 | 321 | 0.0 | 0.0 | 0.00 | 0.00 | 0.00 | 97 | 1010.9 |
| 20260509071357 | 61 | 320 | 0.0 | 0.0 | 0.00 | 0.00 | 0.00 | 98 | 1011.1 |
| 20260509070855 | 61 | 291 | 0.9 | 0.9 | 0.00 | 0.00 | 0.00 | 98 | 1010.8 |
| 20260509070351 | 61 | 320 | 0.0 | 0.0 | 0.00 | 0.00 | 0.00 | 98 | 1011.1 |
| 20260509065847 | 61 | 331 | 0.0 | 0.9 | 0.00 | 0.00 | 0.00 | 98 | 1011.1 |
| 20260509065343 | 61 | 342 | 0.0 | 0.0 | 0.00 | 0.00 | 0.00 | 98 | 1010.8 |
| 20260509064839 | 61 | 331 | 0.0 | 0.0 | 0.00 | 0.00 | 0.00 | 98 | 1011.0 |
| 20260509064337 | 61 | 330 | 0.0 | 0.9 | 0.00 | 0.00 | 0.00 | 97 | 1011.4 |
| 20260509063835 | 62 | 329 | 0.0 | 0.9 | 0.00 | 0.00 | 0.00 | 97 | 1011.1 |
| 20260509063330 | 62 | 313 | 0.0 | 0.0 | 0.00 | 0.00 | 0.00 | 96 | 1011.0 |
| 20260509062828 | 62 | 313 | 0.0 | 0.0 | 0.00 | 0.00 | 0.00 | 96 | 1011.4 |
| 20260509062325 | 62 | 314 | 0.0 | 0.0 | 0.00 | 0.00 | 0.00 | 97 | 1011.5 |
| 20260509061822 | 62 | 327 | 0.0 | 0.0 | 0.00 | 0.00 | 0.00 | 97 | 1011.2 |
| 20260509061320 | 62 | 327 | 0.0 | 0.0 | 0.00 | 0.00 | 0.00 | 97 | 1011.4 |
| 20260509060817 | 62 | 313 | 0.0 | 0.0 | 0.00 | 0.00 | 0.00 | 96 | 1011.7 |
| 20260509060314 | 63 | 283 | 0.0 | 0.9 | 0.00 | 0.00 | 0.00 | 95 | 1011.5 |
| 20260509055809 | 62 | 290 | 0.0 | 0.0 | 0.00 | 0.00 | 0.00 | 96 | 1011.9 |
| 20260509055306 | 63 | 335 | 0.0 | 0.0 | 0.00 | 0.00 | 0.00 | 95 | 1011.6 |
| 20260509054802 | 63 | 0 | 0.0 | 0.0 | 0.00 | 0.00 | 0.00 | 94 | 1011.7 |
| 20260509054258 | 63 | 10 | 0.0 | 0.9 | 0.00 | 0.00 | 0.00 | 95 | 1011.6 |
| 20260509053757 | 63 | 353 | 0.0 | 0.0 | 0.00 | 0.00 | 0.00 | 95 | 1011.7 |
| 20260509053254 | 63 | 359 | 0.0 | 0.9 | 0.00 | 0.00 | 0.00 | 96 | 1011.5 |
| 20260509052752 | 63 | 358 | 0.0 | 0.0 | 0.00 | 0.00 | 0.00 | 96 | 1011.5 |
| 20260509052249 | 63 | 9 | 0.9 | 1.7 | 0.00 | 0.00 | 0.00 | 96 | 1011.4 |
| 20260509051746 | 63 | 26 | 1.7 | 2.6 | 0.00 | 0.00 | 0.00 | 96 | 1011.6 |
| 20260509051245 | 63 | 3 | 1.7 | 2.6 | 0.00 | 0.00 | 0.00 | 96 | 1011.1 |
| 20260509050741 | 63 | 1 | 1.7 | 1.7 | 0.00 | 0.00 | 0.00 | 96 | 1011.0 |
| 20260509050237 | 63 | 24 | 2.6 | 4.3 | 0.00 | 0.00 | 0.00 | 96 | 1011.1 |
| 20260509045735 | 63 | 357 | 0.9 | 5.2 | 0.00 | 0.19 | 0.19 | 96 | 1011.1 |
| 20260509045231 | 63 | 13 | 2.6 | 4.3 | 0.00 | 0.19 | 0.19 | 97 | 1010.7 |
| 20260509044729 | 62 | 63 | 1.7 | 5.2 | 0.00 | 0.19 | 0.19 | 97 | 1011.0 |
| 20260509044227 | 62 | 56 | 0.9 | 1.7 | 0.00 | 0.19 | 0.19 | 98 | 1010.8 |
| 20260509043722 | 63 | 352 | 0.9 | 0.9 | 0.00 | 0.19 | 0.19 | 97 | 1010.6 |
| 20260509043219 | 63 | 349 | 0.9 | 0.9 | 0.00 | 0.19 | 0.19 | 97 | 1010.7 |
| 20260509042715 | 63 | 18 | 0.9 | 0.9 | 0.00 | 0.19 | 0.19 | 97 | 1010.4 |
| 20260509042211 | 63 | 344 | 0.0 | 0.9 | 0.00 | 0.19 | 0.19 | 97 | 1010.5 |
| 20260509041708 | 63 | 6 | 1.7 | 1.7 | 0.00 | 0.19 | 0.19 | 96 | 1010.3 |
| 20260509041205 | 63 | 344 | 0.9 | 0.9 | 0.00 | 0.19 | 0.19 | 97 | 1010.3 |
| 20260509040704 | 64 | 329 | 0.0 | 0.9 | 0.00 | 0.19 | 0.19 | 96 | 1010.3 |
| 20260509040200 | 64 | 330 | 0.0 | 0.9 | 0.00 | 0.19 | 0.19 | 95 | 1010.5 |
| 20260509035657 | 65 | 310 | 0.0 | 0.0 | 0.00 | 0.19 | 0.19 | 94 | 1010.5 |
| 20260509035153 | 64 | 265 | 0.9 | 0.9 | 0.00 | 0.19 | 0.19 | 94 | 1010.4 |
| 20260509034651 | 64 | 314 | 0.0 | 0.0 | 0.00 | 0.19 | 0.19 | 93 | 1010.5 |
| 20260509034148 | 65 | 311 | 0.0 | 0.0 | 0.00 | 0.19 | 0.19 | 93 | 1010.4 |
| 20260509033645 | 65 | 314 | 0.0 | 0.0 | 0.00 | 0.19 | 0.19 | 92 | 1010.4 |
| 20260509033142 | 65 | 251 | 0.9 | 0.9 | 0.00 | 0.19 | 0.19 | 91 | 1010.3 |
| 20260509032639 | 65 | 247 | 1.7 | 1.7 | 0.00 | 0.19 | 0.19 | 91 | 1010.2 |
| 20260509032136 | 65 | 305 | 0.0 | 0.0 | 0.00 | 0.19 | 0.19 | 93 | 1010.2 |
| 20260509031634 | 65 | 325 | 0.0 | 0.0 | 0.00 | 0.19 | 0.19 | 93 | 1010.1 |
| 20260509031131 | 65 | 333 | 0.0 | 0.0 | 0.00 | 0.19 | 0.19 | 91 | 1010.0 |
| 20260509030630 | 66 | 309 | 0.0 | 0.0 | 0.00 | 0.19 | 0.19 | 90 | 1010.0 |
| 20260509030126 | 66 | 176 | 1.7 | 1.7 | 0.00 | 0.19 | 0.19 | 90 | 1009.6 |
| 20260509025622 | 65 | 218 | 0.9 | 1.7 | 0.00 | 0.19 | 0.19 | 92 | 1009.8 |
| 20260509025118 | 65 | 288 | 0.9 | 0.9 | 0.00 | 0.19 | 0.19 | 92 | 1009.7 |
| 20260509024614 | 66 | 349 | 0.9 | 0.9 | 0.00 | 0.19 | 0.19 | 90 | 1009.6 |
| 20260509024110 | 66 | 198 | 2.6 | 2.6 | 0.00 | 0.19 | 0.19 | 89 | 1009.2 |
| 20260509023608 | 65 | 351 | 0.0 | 0.9 | 0.00 | 0.19 | 0.19 | 91 | 1009.3 |
| 20260509023105 | 66 | 345 | 1.7 | 1.7 | 0.00 | 0.19 | 0.19 | 89 | 1009.2 |
| 20260509022601 | 66 | 251 | 1.7 | 1.7 | 0.00 | 0.19 | 0.19 | 91 | 1009.2 |
| 20260509022059 | 67 | 333 | 0.9 | 0.9 | 0.00 | 0.19 | 0.19 | 89 | 1009.1 |
| 20260509021556 | 67 | 279 | 0.0 | 0.9 | 0.00 | 0.19 | 0.19 | 86 | 1009.0 |
| 20260509021053 | 68 | 142 | 1.7 | 1.7 | 0.00 | 0.19 | 0.19 | 85 | 1009.2 |
| 20260509020551 | 68 | 248 | 1.7 | 1.7 | 0.00 | 0.19 | 0.19 | 85 | 1009.2 |
| 20260509020047 | 68 | 260 | 0.0 | 1.7 | 0.00 | 0.19 | 0.19 | 85 | 1009.2 |
| 20260509015546 | 68 | 195 | 0.9 | 1.7 | 0.00 | 0.19 | 0.19 | 84 | 1009.3 |
| 20260509015043 | 68 | 218 | 2.6 | 2.6 | 0.00 | 0.19 | 0.19 | 85 | 1009.0 |
| 20260509014539 | 68 | 234 | 2.6 | 2.6 | 0.00 | 0.19 | 0.19 | 85 | 1009.0 |
| 20260509014036 | 67 | 217 | 1.7 | 2.6 | 0.00 | 0.19 | 0.19 | 85 | 1008.9 |
| 20260509013533 | 67 | 177 | 1.7 | 1.7 | 0.00 | 0.19 | 0.19 | 88 | 1008.6 |
| 20260509013028 | 67 | 206 | 1.7 | 1.7 | 0.00 | 0.19 | 0.19 | 89 | 1008.5 |
| 20260509012525 | 67 | 108 | 1.7 | 1.7 | 0.00 | 0.19 | 0.19 | 88 | 1008.2 |
| 20260509012022 | 67 | 5 | 0.0 | 0.0 | 0.00 | 0.19 | 0.19 | 86 | 1008.1 |